| time (UTC) | temp F | wind direction | speed MPH | gust MPH | rain 1hr in | rain 24hr in | rain mn in | humidity % | barometer mb |
| 20260509234320 | 54 | 176 | 0.0 | 0.0 | 0.00 | 0.22 | 0.22 | 87 | 1007.3 |
| 20260509233820 | 54 | 177 | 0.0 | 0.0 | 0.00 | 0.22 | 0.22 | 87 | 1007.3 |
| 20260509233318 | 54 | 212 | 0.0 | 0.0 | 0.00 | 0.22 | 0.22 | 87 | 1007.3 |
| 20260509232835 | 54 | 240 | 0.0 | 0.0 | 0.00 | 0.22 | 0.22 | 87 | 1007.3 |
| 20260509232313 | 54 | 260 | 0.0 | 0.0 | 0.00 | 0.22 | 0.22 | 87 | 1007.3 |
| 20260509231831 | 55 | 271 | 0.0 | 3.0 | 0.00 | 0.22 | 0.22 | 87 | 1007.3 |
| 20260509231330 | 55 | 189 | 0.0 | 3.0 | 0.00 | 0.22 | 0.22 | 87 | 1007.3 |
| 20260509230848 | 55 | 231 | 0.0 | 0.0 | 0.00 | 0.22 | 0.22 | 87 | 1007.3 |
| 20260509230329 | 55 | 265 | 0.0 | 0.0 | 0.00 | 0.22 | 0.22 | 87 | 1007.3 |
| 20260509225826 | 55 | 249 | 0.0 | 0.0 | 0.00 | 0.22 | 0.22 | 87 | 1007.3 |
| 20260509225326 | 55 | 185 | 0.0 | 5.0 | 0.00 | 0.22 | 0.22 | 87 | 1007.2 |
| 20260509224824 | 55 | 208 | 0.0 | 3.0 | 0.00 | 0.22 | 0.22 | 87 | 1007.1 |
| 20260509224323 | 55 | 250 | 0.0 | 8.0 | 0.00 | 0.22 | 0.22 | 87 | 1007.1 |
| 20260509223823 | 54 | 187 | 0.0 | 8.0 | 0.00 | 0.22 | 0.22 | 88 | 1007.1 |
| 20260509223323 | 54 | 185 | 0.0 | 4.0 | 0.00 | 0.22 | 0.22 | 88 | 1007.1 |
| 20260509222823 | 54 | 223 | 0.0 | 0.0 | 0.00 | 0.22 | 0.22 | 88 | 1007.0 |
| 20260509222320 | 54 | 226 | 0.0 | 0.0 | 0.00 | 0.22 | 0.22 | 88 | 1007.1 |
| 20260509221819 | 54 | 229 | 0.0 | 0.0 | 0.00 | 0.22 | 0.22 | 88 | 1007.2 |
| 20260509221318 | 54 | 201 | 0.0 | 0.0 | 0.00 | 0.22 | 0.22 | 89 | 1007.1 |
| 20260509220837 | 54 | 209 | 0.0 | 0.0 | 0.00 | 0.22 | 0.22 | 89 | 1007.1 |
| 20260509220317 | 54 | 204 | 0.0 | 4.0 | 0.00 | 0.22 | 0.22 | 89 | 1007.1 |
| 20260509215814 | 54 | 187 | 0.0 | 4.0 | 0.00 | 0.22 | 0.22 | 89 | 1007.2 |
| 20260509215332 | 54 | 201 | 0.0 | 0.0 | 0.00 | 0.22 | 0.22 | 90 | 1007.3 |
| 20260509214831 | 54 | 243 | 0.0 | 0.0 | 0.00 | 0.22 | 0.22 | 90 | 1007.3 |
| 20260509214331 | 54 | 217 | 0.0 | 0.0 | 0.00 | 0.22 | 0.22 | 90 | 1007.4 |
| 20260509213829 | 54 | 207 | 0.0 | 0.0 | 0.00 | 0.22 | 0.22 | 90 | 1007.4 |
| 20260509213329 | 54 | 158 | 0.0 | 0.0 | 0.00 | 0.22 | 0.22 | 90 | 1007.4 |
| 20260509212847 | 54 | 174 | 0.0 | 0.0 | 0.00 | 0.22 | 0.22 | 90 | 1007.6 |
| 20260509212323 | 54 | 233 | 0.0 | 0.0 | 0.00 | 0.22 | 0.22 | 90 | 1007.5 |
| 20260509211822 | 54 | 228 | 0.0 | 5.0 | 0.00 | 0.22 | 0.22 | 90 | 1007.6 |
| 20260509211321 | 54 | 259 | 0.0 | 5.0 | 0.00 | 0.22 | 0.22 | 90 | 1007.6 |
| 20260509210821 | 54 | 206 | 0.0 | 2.0 | 0.00 | 0.22 | 0.22 | 90 | 1007.7 |
| 20260509210320 | 54 | 217 | 0.0 | 0.0 | 0.00 | 0.22 | 0.22 | 90 | 1007.6 |
| 20260509205819 | 54 | 219 | 0.0 | 0.0 | 0.00 | 0.22 | 0.22 | 90 | 1007.7 |
| 20260509205318 | 54 | 174 | 0.0 | 0.0 | 0.00 | 0.22 | 0.22 | 90 | 1007.7 |
| 20260509204816 | 54 | 209 | 0.0 | 0.0 | 0.00 | 0.22 | 0.22 | 91 | 1007.7 |
| 20260509204315 | 53 | 235 | 0.0 | 0.0 | 0.00 | 0.22 | 0.22 | 91 | 1007.9 |
| 20260509203814 | 53 | 249 | 0.0 | 0.0 | 0.00 | 0.22 | 0.22 | 91 | 1007.9 |
| 20260509203335 | 53 | 201 | 0.0 | 0.0 | 0.00 | 0.22 | 0.22 | 91 | 1007.8 |
| 20260509202853 | 53 | 171 | 0.0 | 0.0 | 0.00 | 0.22 | 0.22 | 91 | 1007.9 |
| 20260509202351 | 53 | 215 | 0.0 | 0.0 | 0.00 | 0.22 | 0.22 | 91 | 1008.0 |
| 20260509201828 | 53 | 237 | 0.0 | 0.0 | 0.00 | 0.22 | 0.22 | 91 | 1008.0 |
| 20260509201327 | 53 | 181 | 0.0 | 0.0 | 0.00 | 0.22 | 0.22 | 91 | 1008.0 |
| 20260509200826 | 53 | 211 | 0.0 | 0.0 | 0.00 | 0.22 | 0.22 | 91 | 1008.0 |
| 20260509200325 | 53 | 258 | 0.0 | 0.0 | 0.00 | 0.22 | 0.22 | 91 | 1008.0 |
| 20260509195823 | 53 | 200 | 0.0 | 0.0 | 0.00 | 0.22 | 0.22 | 92 | 1008.0 |
| 20260509195321 | 53 | 227 | 0.0 | 0.0 | 0.00 | 0.22 | 0.22 | 92 | 1008.0 |
| 20260509194820 | 53 | 215 | 0.0 | 0.0 | 0.00 | 0.22 | 0.22 | 93 | 1008.2 |
| 20260509194318 | 52 | 222 | 0.0 | 0.0 | 0.00 | 0.22 | 0.22 | 93 | 1008.3 |
| 20260509193817 | 52 | 221 | 0.0 | 0.0 | 0.00 | 0.22 | 0.22 | 94 | 1008.4 |
| 20260509193318 | 52 | 191 | 0.0 | 0.0 | 0.00 | 0.22 | 0.22 | 93 | 1008.5 |
| 20260509192815 | 52 | 245 | 0.0 | 0.0 | 0.00 | 0.22 | 0.22 | 93 | 1008.6 |
| 20260509192332 | 52 | 206 | 0.0 | 0.0 | 0.00 | 0.22 | 0.22 | 94 | 1008.6 |
| 20260509191831 | 52 | 216 | 0.0 | 0.0 | 0.00 | 0.22 | 0.22 | 94 | 1008.6 |
| 20260509191329 | 51 | 211 | 0.0 | 0.0 | 0.00 | 0.22 | 0.22 | 93 | 1008.6 |
| 20260509190826 | 51 | 247 | 0.0 | 0.0 | 0.00 | 0.22 | 0.22 | 93 | 1008.6 |
| 20260509190328 | 51 | 229 | 0.0 | 0.0 | 0.00 | 0.22 | 0.22 | 93 | 1008.6 |
| 20260509185826 | 51 | 229 | 0.0 | 0.0 | 0.00 | 0.22 | 0.22 | 93 | 1008.6 |
| 20260509185324 | 52 | 229 | 0.0 | 0.0 | 0.00 | 0.22 | 0.22 | 93 | 1008.7 |
| 20260509184823 | 52 | 211 | 0.0 | 0.0 | 0.00 | 0.22 | 0.22 | 92 | 1008.7 |
| 20260509184322 | 52 | 241 | 0.0 | 0.0 | 0.00 | 0.22 | 0.22 | 92 | 1008.7 |
| 20260509183820 | 52 | 167 | 0.0 | 0.0 | 0.00 | 0.22 | 0.22 | 91 | 1008.7 |
| 20260509183321 | 52 | 237 | 0.0 | 0.0 | 0.00 | 0.22 | 0.22 | 91 | 1008.7 |
| 20260509182818 | 52 | 256 | 0.0 | 0.0 | 0.00 | 0.22 | 0.22 | 90 | 1008.8 |
| 20260509182318 | 52 | 164 | 0.0 | 0.0 | 0.00 | 0.22 | 0.22 | 90 | 1008.7 |
| 20260509181815 | 52 | 205 | 0.0 | 0.0 | 0.00 | 0.22 | 0.22 | 90 | 1008.7 |
| 20260509181314 | 53 | 257 | 0.0 | 0.0 | 0.00 | 0.22 | 0.22 | 89 | 1008.7 |
| 20260509180813 | 53 | 201 | 0.0 | 0.0 | 0.00 | 0.22 | 0.22 | 89 | 1008.6 |
| 20260509180328 | 53 | 223 | 0.0 | 0.0 | 0.00 | 0.22 | 0.22 | 89 | 1008.6 |
| 20260509175826 | 53 | 249 | 0.0 | 0.0 | 0.00 | 0.22 | 0.22 | 89 | 1008.5 |
| 20260509175324 | 53 | 229 | 0.0 | 0.0 | 0.00 | 0.22 | 0.22 | 89 | 1008.5 |
| 20260509174823 | 53 | 193 | 0.0 | 0.0 | 0.00 | 0.22 | 0.22 | 89 | 1008.5 |
| 20260509174322 | 53 | 218 | 0.0 | 0.0 | 0.00 | 0.22 | 0.22 | 90 | 1008.5 |
| 20260509173822 | 53 | 258 | 0.0 | 6.0 | 0.00 | 0.22 | 0.22 | 91 | 1008.5 |
| 20260509173322 | 53 | 186 | 0.0 | 6.0 | 0.00 | 0.22 | 0.22 | 91 | 1008.5 |
| 20260509172839 | 53 | 166 | 0.0 | 0.0 | 0.00 | 0.22 | 0.22 | 92 | 1008.4 |
| 20260509172316 | 53 | 232 | 0.0 | 7.0 | 0.00 | 0.22 | 0.22 | 93 | 1008.4 |
| 20260509171835 | 53 | 185 | 1.0 | 7.0 | 0.00 | 0.22 | 0.22 | 94 | 1008.5 |
| 20260509171353 | 53 | 205 | 0.0 | 0.0 | 0.00 | 0.22 | 0.22 | 95 | 1008.5 |
| 20260509170832 | 52 | 224 | 0.0 | 0.0 | 0.01 | 0.22 | 0.22 | 95 | 1008.6 |
| 20260509170332 | 52 | 185 | 0.0 | 1.0 | 0.01 | 0.22 | 0.22 | 95 | 1008.6 |
| 20260509165830 | 52 | 202 | 0.0 | 1.0 | 0.01 | 0.22 | 0.22 | 94 | 1008.7 |
| 20260509165350 | 52 | 188 | 0.0 | 0.0 | 0.01 | 0.22 | 0.22 | 95 | 1008.7 |
| 20260509164846 | 52 | 211 | 0.0 | 0.0 | 0.01 | 0.22 | 0.22 | 95 | 1008.8 |
| 20260509164323 | 52 | 210 | 0.0 | 1.0 | 0.01 | 0.22 | 0.22 | 95 | 1008.8 |
| 20260509163843 | 52 | 185 | 0.0 | 1.0 | 0.01 | 0.22 | 0.22 | 95 | 1008.9 |
| 20260509163321 | 52 | 228 | 0.0 | 0.0 | 0.02 | 0.22 | 0.22 | 96 | 1008.9 |
| 20260509162818 | 51 | 206 | 0.0 | 0.0 | 0.02 | 0.24 | 0.22 | 96 | 1009.0 |
| 20260509162317 | 51 | 185 | 0.0 | 4.0 | 0.02 | 0.24 | 0.22 | 96 | 1009.0 |
| 20260509161814 | 51 | 173 | 0.0 | 4.0 | 0.03 | 0.24 | 0.22 | 96 | 1009.0 |
| 20260509161334 | 51 | 226 | 0.0 | 0.0 | 0.03 | 0.24 | 0.22 | 96 | 1009.1 |
| 20260509160852 | 51 | 186 | 0.0 | 0.0 | 0.03 | 0.23 | 0.21 | 96 | 1009.1 |
| 20260509160330 | 51 | 221 | 0.0 | 0.0 | 0.03 | 0.23 | 0.21 | 96 | 1009.2 |
| 20260509155829 | 50 | 193 | 0.0 | 0.0 | 0.03 | 0.23 | 0.21 | 96 | 1009.3 |
| 20260509155329 | 50 | 199 | 0.0 | 2.0 | 0.04 | 0.23 | 0.21 | 96 | 1009.4 |
| 20260509154828 | 50 | 211 | 0.0 | 2.0 | 0.04 | 0.23 | 0.21 | 97 | 1009.5 |
| 20260509154347 | 50 | 133 | 0.0 | 0.0 | 0.05 | 0.23 | 0.21 | 96 | 1009.5 |
| 20260509153824 | 50 | 133 | 0.0 | 0.0 | 0.05 | 0.23 | 0.21 | 96 | 1009.7 |
| 20260509153323 | 49 | 133 | 0.0 | 0.0 | 0.04 | 0.22 | 0.20 | 96 | 1009.7 |
| 20260509152821 | 49 | 89 | 0.0 | 0.0 | 0.05 | 0.23 | 0.20 | 96 | 1009.8 |
| 20260509152319 | 49 | 89 | 0.0 | 0.0 | 0.06 | 0.23 | 0.20 | 96 | 1009.9 |
| 20260509151818 | 50 | 89 | 0.0 | 0.0 | 0.05 | 0.22 | 0.19 | 97 | 1009.9 |
| 20260509151316 | 49 | 89 | 0.0 | 0.0 | 0.05 | 0.22 | 0.19 | 97 | 1009.9 |
| 20260509150815 | 49 | 89 | 0.0 | 0.0 | 0.04 | 0.21 | 0.18 | 97 | 1010.0 |
| 20260509150315 | 49 | 89 | 0.0 | 0.0 | 0.04 | 0.21 | 0.18 | 97 | 1010.1 |
| 20260509145832 | 49 | 89 | 0.0 | 0.0 | 0.05 | 0.21 | 0.18 | 97 | 1010.1 |
| 20260509145331 | 48 | 89 | 0.0 | 0.0 | 0.04 | 0.20 | 0.17 | 96 | 1010.1 |
| 20260509144830 | 48 | 89 | 0.0 | 0.0 | 0.04 | 0.20 | 0.17 | 96 | 1010.2 |
| 20260509144329 | 48 | 89 | 0.0 | 0.0 | 0.03 | 0.19 | 0.16 | 96 | 1010.2 |
| 20260509143829 | 48 | 89 | 0.0 | 0.0 | 0.03 | 0.19 | 0.16 | 96 | 1010.2 |
| 20260509143329 | 48 | 89 | 0.0 | 0.0 | 0.03 | 0.18 | 0.15 | 97 | 1010.3 |
| 20260509142827 | 48 | 89 | 0.0 | 0.0 | 0.03 | 0.19 | 0.15 | 97 | 1010.2 |
| 20260509142325 | 48 | 89 | 0.0 | 0.0 | 0.02 | 0.18 | 0.14 | 97 | 1010.3 |
| 20260509141824 | 48 | 89 | 0.0 | 0.0 | 0.02 | 0.18 | 0.14 | 97 | 1010.3 |
| 20260509141327 | 48 | 89 | 0.0 | 0.0 | 0.02 | 0.18 | 0.14 | 97 | 1010.3 |
| 20260509140822 | 48 | 89 | 0.0 | 0.0 | 0.02 | 0.18 | 0.14 | 97 | 1010.3 |
| 20260509140323 | 47 | 89 | 0.0 | 0.0 | 0.02 | 0.17 | 0.13 | 97 | 1010.3 |
| 20260509135823 | 47 | 89 | 0.0 | 0.0 | 0.02 | 0.17 | 0.13 | 97 | 1010.2 |
| 20260509135321 | 46 | 89 | 0.0 | 0.0 | 0.03 | 0.17 | 0.13 | 97 | 1010.3 |
| 20260509134819 | 46 | 89 | 0.0 | 0.0 | 0.03 | 0.17 | 0.13 | 96 | 1010.3 |
| 20260509134318 | 45 | 89 | 0.0 | 0.0 | 0.04 | 0.17 | 0.13 | 97 | 1010.3 |
| 20260509133837 | 45 | 89 | 0.0 | 0.0 | 0.05 | 0.17 | 0.13 | 96 | 1010.3 |
| 20260509133336 | 45 | 89 | 0.0 | 0.0 | 0.04 | 0.16 | 0.12 | 96 | 1010.3 |
| 20260509132829 | 45 | 89 | 0.0 | 0.0 | 0.05 | 0.16 | 0.12 | 96 | 1010.3 |
| 20260509132348 | 44 | 89 | 0.0 | 0.0 | 0.06 | 0.16 | 0.12 | 96 | 1010.5 |
| 20260509131825 | 44 | 89 | 0.0 | 0.0 | 0.07 | 0.16 | 0.12 | 96 | 1010.3 |
| 20260509131324 | 44 | 89 | 0.0 | 0.0 | 0.08 | 0.16 | 0.12 | 96 | 1010.3 |
| 20260509130846 | 44 | 89 | 0.0 | 0.0 | 0.08 | 0.16 | 0.12 | 96 | 1010.4 |
| 20260509130325 | 43 | 89 | 0.0 | 0.0 | 0.08 | 0.15 | 0.11 | 96 | 1010.4 |
| 20260509125822 | 43 | 89 | 0.0 | 0.0 | 0.08 | 0.15 | 0.11 | 96 | 1010.4 |
| 20260509125320 | 43 | 89 | 0.0 | 0.0 | 0.08 | 0.14 | 0.10 | 96 | 1010.5 |
| 20260509124819 | 43 | 89 | 0.0 | 0.0 | 0.07 | 0.13 | 0.09 | 96 | 1010.5 |
| 20260509124317 | 43 | 89 | 0.0 | 0.0 | 0.07 | 0.13 | 0.09 | 96 | 1010.4 |
| 20260509123837 | 43 | 89 | 0.0 | 0.0 | 0.06 | 0.12 | 0.08 | 96 | 1010.4 |
| 20260509123316 | 42 | 89 | 0.0 | 0.0 | 0.05 | 0.11 | 0.07 | 96 | 1010.5 |
| 20260509122835 | 42 | 89 | 0.0 | 0.0 | 0.05 | 0.11 | 0.07 | 96 | 1010.5 |
| 20260509122313 | 42 | 89 | 0.0 | 0.0 | 0.04 | 0.10 | 0.06 | 96 | 1010.6 |
| 20260509121831 | 42 | 89 | 0.0 | 0.0 | 0.03 | 0.09 | 0.05 | 96 | 1010.8 |
| 20260509121330 | 42 | 89 | 0.0 | 0.0 | 0.02 | 0.08 | 0.04 | 95 | 1010.8 |
| 20260509120828 | 42 | 89 | 0.0 | 0.0 | 0.02 | 0.08 | 0.04 | 95 | 1010.9 |
| 20260509120330 | 42 | 89 | 0.0 | 0.0 | 0.01 | 0.07 | 0.03 | 95 | 1010.9 |
| 20260509115828 | 41 | 89 | 0.0 | 0.0 | 0.01 | 0.06 | 0.02 | 96 | 1010.8 |
| 20260509115326 | 41 | 89 | 0.0 | 0.0 | 0.01 | 0.06 | 0.02 | 96 | 1010.9 |
| 20260509114824 | 41 | 89 | 0.0 | 0.0 | 0.01 | 0.06 | 0.02 | 95 | 1010.8 |
| 20260509114323 | 41 | 89 | 0.0 | 0.0 | 0.01 | 0.06 | 0.02 | 95 | 1010.8 |
| 20260509113821 | 41 | 89 | 0.0 | 0.0 | 0.01 | 0.06 | 0.02 | 95 | 1010.8 |
| 20260509113342 | 41 | 89 | 0.0 | 0.0 | 0.01 | 0.06 | 0.02 | 95 | 1010.9 |
| 20260509112818 | 41 | 89 | 0.0 | 0.0 | 0.01 | 0.06 | 0.02 | 95 | 1010.9 |
| 20260509112317 | 40 | 89 | 0.0 | 0.0 | 0.01 | 0.06 | 0.02 | 95 | 1011.0 |
| 20260509111817 | 40 | 89 | 0.0 | 0.0 | 0.01 | 0.06 | 0.02 | 95 | 1010.8 |
| 20260509111314 | 40 | 89 | 0.0 | 0.0 | 0.01 | 0.06 | 0.02 | 95 | 1010.9 |
| 20260509110832 | 40 | 89 | 0.0 | 0.0 | 0.01 | 0.06 | 0.02 | 95 | 1010.9 |
| 20260509110332 | 40 | 89 | 0.0 | 0.0 | 0.01 | 0.06 | 0.02 | 95 | 1010.9 |
| 20260509105831 | 40 | 89 | 0.0 | 0.0 | 0.00 | 0.05 | 0.01 | 95 | 1010.8 |
| 20260509105330 | 40 | 89 | 0.0 | 0.0 | 0.00 | 0.05 | 0.01 | 95 | 1010.7 |
| 20260509104828 | 39 | 89 | 0.0 | 0.0 | 0.00 | 0.05 | 0.01 | 94 | 1010.7 |
| 20260509104326 | 39 | 89 | 0.0 | 0.0 | 0.00 | 0.05 | 0.01 | 94 | 1010.7 |
| 20260509103825 | 39 | 89 | 0.0 | 0.0 | 0.00 | 0.05 | 0.01 | 94 | 1010.6 |
| 20260509103325 | 39 | 89 | 0.0 | 0.0 | 0.00 | 0.05 | 0.01 | 94 | 1010.6 |
| 20260509102822 | 39 | 89 | 0.0 | 0.0 | 0.00 | 0.05 | 0.01 | 94 | 1010.4 |
| 20260509102321 | 39 | 89 | 0.0 | 0.0 | 0.00 | 0.05 | 0.01 | 94 | 1010.4 |
| 20260509101820 | 39 | 89 | 0.0 | 0.0 | 0.00 | 0.05 | 0.01 | 94 | 1010.4 |
| 20260509101320 | 39 | 89 | 0.0 | 0.0 | 0.00 | 0.05 | 0.01 | 94 | 1010.5 |
| 20260509100819 | 39 | 89 | 0.0 | 0.0 | 0.00 | 0.05 | 0.01 | 94 | 1010.4 |
| 20260509100318 | 39 | 89 | 0.0 | 0.0 | 0.00 | 0.05 | 0.01 | 94 | 1010.5 |
| 20260509095837 | 39 | 89 | 0.0 | 0.0 | 0.00 | 0.05 | 0.01 | 94 | 1010.5 |
| 20260509095335 | 38 | 89 | 0.0 | 0.0 | 0.00 | 0.05 | 0.01 | 93 | 1010.5 |
| 20260509094813 | 38 | 89 | 0.0 | 0.0 | 0.00 | 0.05 | 0.01 | 93 | 1010.5 |
| 20260509094331 | 38 | 89 | 0.0 | 0.0 | 0.00 | 0.05 | 0.01 | 93 | 1010.5 |
| 20260509093830 | 38 | 89 | 0.0 | 0.0 | 0.00 | 0.05 | 0.01 | 93 | 1010.6 |
| 20260509093330 | 38 | 89 | 0.0 | 0.0 | 0.00 | 0.05 | 0.01 | 93 | 1010.6 |
| 20260509092828 | 38 | 89 | 0.0 | 0.0 | 0.00 | 0.05 | 0.01 | 93 | 1010.7 |
| 20260509092327 | 38 | 89 | 0.0 | 0.0 | 0.00 | 0.05 | 0.01 | 93 | 1010.8 |
| 20260509091826 | 38 | 89 | 0.0 | 0.0 | 0.01 | 0.05 | 0.01 | 93 | 1010.7 |
| 20260509091325 | 38 | 89 | 0.0 | 0.0 | 0.01 | 0.05 | 0.01 | 93 | 1010.7 |
| 20260509090822 | 38 | 89 | 0.0 | 0.0 | 0.01 | 0.05 | 0.01 | 92 | 1010.8 |
| 20260509090323 | 38 | 89 | 0.0 | 0.0 | 0.01 | 0.05 | 0.01 | 92 | 1010.8 |
| 20260509085820 | 38 | 89 | 0.0 | 0.0 | 0.01 | 0.05 | 0.01 | 92 | 1010.9 |
| 20260509085317 | 38 | 89 | 0.0 | 0.0 | 0.01 | 0.05 | 0.01 | 92 | 1011.1 |
| 20260509084816 | 38 | 89 | 0.0 | 0.0 | 0.01 | 0.05 | 0.01 | 92 | 1011.0 |
| 20260509084315 | 38 | 62 | 0.0 | 0.0 | 0.01 | 0.05 | 0.01 | 92 | 1011.0 |
| 20260509083813 | 38 | 51 | 0.0 | 0.0 | 0.01 | 0.05 | 0.01 | 92 | 1011.1 |
| 20260509083314 | 38 | 334 | 0.0 | 0.0 | 0.01 | 0.05 | 0.01 | 92 | 1011.1 |
| 20260509082813 | 37 | 320 | 0.0 | 0.0 | 0.01 | 0.05 | 0.01 | 92 | 1011.0 |
| 20260509082332 | 37 | 320 | 0.0 | 0.0 | 0.01 | 0.05 | 0.01 | 92 | 1011.1 |
| 20260509081832 | 37 | 320 | 0.0 | 0.0 | 0.00 | 0.04 | 0.00 | 91 | 1011.1 |
| 20260509081331 | 37 | 320 | 0.0 | 0.0 | 0.00 | 0.04 | 0.00 | 91 | 1011.1 |
| 20260509080829 | 37 | 320 | 0.0 | 0.0 | 0.00 | 0.04 | 0.00 | 91 | 1011.1 |
| 20260509080327 | 37 | 320 | 0.0 | 0.0 | 0.00 | 0.04 | 0.00 | 92 | 1011.2 |
| 20260509075825 | 37 | 320 | 0.0 | 0.0 | 0.00 | 0.04 | 0.00 | 92 | 1011.2 |
| 20260509075324 | 37 | 320 | 0.0 | 0.0 | 0.00 | 0.04 | 0.00 | 91 | 1011.2 |
| 20260509074842 | 36 | 320 | 0.0 | 0.0 | 0.00 | 0.04 | 0.00 | 91 | 1011.2 |
| 20260509074320 | 36 | 320 | 0.0 | 0.0 | 0.00 | 0.04 | 0.00 | 92 | 1011.2 |
| 20260509073818 | 36 | 320 | 0.0 | 0.0 | 0.00 | 0.04 | 0.00 | 92 | 1011.1 |
| 20260509073319 | 36 | 320 | 0.0 | 0.0 | 0.00 | 0.04 | 0.00 | 91 | 1011.1 |
| 20260509072832 | 36 | 320 | 0.0 | 0.0 | 0.00 | 0.04 | 0.00 | 91 | 1011.1 |
| 20260509072353 | 36 | 320 | 0.0 | 0.0 | 0.00 | 0.04 | 0.00 | 92 | 1011.0 |
| 20260509071831 | 36 | 320 | 0.0 | 0.0 | 0.00 | 0.04 | 0.00 | 92 | 1011.1 |
| 20260509071351 | 36 | 320 | 0.0 | 0.0 | 0.00 | 0.04 | 0.00 | 92 | 1011.1 |
| 20260509070829 | 35 | 320 | 0.0 | 0.0 | 0.00 | 0.04 | 0.00 | 92 | 1011.1 |
| 20260509070329 | 35 | 320 | 0.0 | 0.0 | 0.00 | 0.04 | 0.00 | 92 | 1011.2 |
| 20260509065848 | 35 | 320 | 0.0 | 0.0 | 0.00 | 0.04 | 0.00 | 92 | 1011.2 |
| 20260509065326 | 35 | 320 | 0.0 | 0.0 | 0.00 | 0.04 | 0.00 | 92 | 1011.2 |
| 20260509064825 | 35 | 320 | 0.0 | 0.0 | 0.00 | 0.04 | 0.00 | 92 | 1011.3 |
| 20260509064323 | 35 | 320 | 0.0 | 0.0 | 0.00 | 0.04 | 0.00 | 92 | 1011.2 |
| 20260509063842 | 35 | 320 | 0.0 | 0.0 | 0.00 | 0.04 | 0.00 | 92 | 1011.3 |
| 20260509063320 | 35 | 320 | 0.0 | 0.0 | 0.00 | 0.04 | 0.00 | 92 | 1011.3 |
| 20260509062819 | 35 | 320 | 0.0 | 0.0 | 0.00 | 0.04 | 0.00 | 92 | 1011.5 |
| 20260509062318 | 34 | 320 | 0.0 | 0.0 | 0.00 | 0.04 | 0.00 | 92 | 1011.5 |
| 20260509061818 | 34 | 320 | 0.0 | 0.0 | 0.00 | 0.04 | 0.00 | 91 | 1011.4 |
| 20260509061317 | 34 | 320 | 0.0 | 0.0 | 0.00 | 0.04 | 0.00 | 91 | 1011.7 |
| 20260509060816 | 34 | 320 | 0.0 | 0.0 | 0.00 | 0.04 | 0.00 | 91 | 1011.6 |
| 20260509060315 | 34 | 320 | 0.0 | 0.0 | 0.00 | 0.04 | 0.00 | 91 | 1011.6 |
| 20260509055813 | 34 | 320 | 0.0 | 0.0 | 0.00 | 0.04 | 0.00 | 91 | 1011.7 |
| 20260509055335 | 34 | 320 | 0.0 | 0.0 | 0.00 | 0.04 | 0.00 | 91 | 1011.8 |
| 20260509054813 | 34 | 320 | 0.0 | 0.0 | 0.00 | 0.04 | 0.00 | 91 | 1011.9 |
| 20260509054331 | 34 | 320 | 0.0 | 0.0 | 0.00 | 0.04 | 0.00 | 90 | 1011.9 |
| 20260509053830 | 34 | 320 | 0.0 | 0.0 | 0.00 | 0.04 | 0.00 | 91 | 1011.8 |
| 20260509053330 | 34 | 320 | 0.0 | 0.0 | 0.00 | 0.04 | 0.00 | 90 | 1012.1 |
| 20260509052829 | 34 | 320 | 0.0 | 0.0 | 0.00 | 0.04 | 0.00 | 90 | 1012.0 |
| 20260509052327 | 34 | 320 | 0.0 | 0.0 | 0.00 | 0.04 | 0.00 | 90 | 1012.0 |
| 20260509051825 | 34 | 320 | 0.0 | 0.0 | 0.00 | 0.04 | 0.00 | 90 | 1012.0 |
| 20260509051344 | 34 | 320 | 0.0 | 0.0 | 0.00 | 0.04 | 0.00 | 90 | 1012.0 |
| 20260509050842 | 34 | 320 | 0.0 | 0.0 | 0.00 | 0.04 | 0.00 | 89 | 1012.0 |
| 20260509050320 | 34 | 320 | 0.0 | 0.0 | 0.00 | 0.04 | 0.00 | 89 | 1012.1 |
| 20260509045821 | 34 | 320 | 0.0 | 0.0 | 0.00 | 0.04 | 0.00 | 89 | 1012.1 |
| 20260509045319 | 35 | 320 | 0.0 | 0.0 | 0.00 | 0.04 | 0.00 | 89 | 1012.1 |
| 20260509044817 | 35 | 320 | 0.0 | 0.0 | 0.00 | 0.04 | 0.00 | 89 | 1012.1 |
| 20260509044336 | 35 | 320 | 0.0 | 0.0 | 0.00 | 0.04 | 0.00 | 88 | 1012.2 |
| 20260509043813 | 35 | 320 | 0.0 | 0.0 | 0.00 | 0.04 | 0.00 | 88 | 1012.2 |
| 20260509043314 | 35 | 320 | 0.0 | 0.0 | 0.00 | 0.04 | 0.00 | 88 | 1012.3 |
| 20260509042831 | 35 | 320 | 0.0 | 0.0 | 0.00 | 0.04 | 0.00 | 88 | 1012.3 |
| 20260509042329 | 36 | 320 | 0.0 | 0.0 | 0.00 | 0.04 | 0.00 | 87 | 1012.3 |
| 20260509041848 | 36 | 320 | 0.0 | 0.0 | 0.00 | 0.04 | 0.00 | 87 | 1012.2 |
| 20260509041326 | 36 | 320 | 0.0 | 0.0 | 0.00 | 0.04 | 0.00 | 86 | 1012.2 |
| 20260509040826 | 36 | 320 | 0.0 | 0.0 | 0.00 | 0.04 | 0.00 | 86 | 1012.3 |
| 20260509040346 | 36 | 320 | 0.0 | 0.0 | 0.00 | 0.04 | 0.00 | 86 | 1012.2 |
| 20260509035822 | 37 | 320 | 0.0 | 0.0 | 0.00 | 0.04 | 0.00 | 85 | 1012.2 |
| 20260509035322 | 37 | 320 | 0.0 | 0.0 | 0.00 | 0.04 | 0.00 | 85 | 1012.2 |
| 20260509034821 | 37 | 320 | 0.0 | 0.0 | 0.00 | 0.04 | 0.00 | 84 | 1012.2 |
| 20260509034319 | 38 | 320 | 0.0 | 0.0 | 0.00 | 0.04 | 0.00 | 84 | 1012.2 |
| 20260509033819 | 38 | 320 | 0.0 | 0.0 | 0.00 | 0.04 | 0.00 | 84 | 1012.3 |
| 20260509033319 | 38 | 320 | 0.0 | 0.0 | 0.00 | 0.04 | 0.00 | 84 | 1012.2 |
| 20260509032817 | 39 | 320 | 0.0 | 0.0 | 0.00 | 0.04 | 0.00 | 84 | 1012.2 |
| 20260509032317 | 39 | 320 | 0.0 | 0.0 | 0.00 | 0.04 | 0.00 | 83 | 1012.2 |
| 20260509031816 | 39 | 320 | 0.0 | 0.0 | 0.00 | 0.04 | 0.00 | 83 | 1012.2 |
| 20260509031313 | 39 | 320 | 0.0 | 0.0 | 0.00 | 0.04 | 0.00 | 82 | 1012.3 |
| 20260509030827 | 39 | 320 | 0.0 | 0.0 | 0.00 | 0.04 | 0.00 | 82 | 1012.3 |
| 20260509030327 | 40 | 320 | 0.0 | 0.0 | 0.00 | 0.04 | 0.00 | 82 | 1012.3 |
| 20260509025825 | 40 | 320 | 0.0 | 0.0 | 0.00 | 0.04 | 0.00 | 82 | 1012.4 |
| 20260509025326 | 40 | 320 | 0.0 | 0.0 | 0.00 | 0.04 | 0.00 | 82 | 1012.3 |
| 20260509024826 | 40 | 320 | 0.0 | 0.0 | 0.00 | 0.04 | 0.00 | 82 | 1012.3 |
| 20260509024345 | 40 | 320 | 0.0 | 0.0 | 0.00 | 0.04 | 0.00 | 82 | 1012.3 |
| 20260509023824 | 40 | 320 | 0.0 | 0.0 | 0.00 | 0.04 | 0.00 | 82 | 1012.3 |
| 20260509023322 | 40 | 320 | 0.0 | 0.0 | 0.00 | 0.04 | 0.00 | 82 | 1012.3 |
| 20260509022821 | 39 | 320 | 0.0 | 0.0 | 0.00 | 0.04 | 0.04 | 82 | 1012.4 |
| 20260509022319 | 39 | 320 | 0.0 | 0.0 | 0.00 | 0.04 | 0.04 | 82 | 1012.4 |
| 20260509021818 | 39 | 320 | 0.0 | 0.0 | 0.00 | 0.04 | 0.04 | 82 | 1012.6 |
| 20260509021317 | 39 | 320 | 0.0 | 0.0 | 0.00 | 0.04 | 0.04 | 82 | 1012.4 |
| 20260509020817 | 39 | 320 | 0.0 | 0.0 | 0.00 | 0.04 | 0.04 | 82 | 1012.4 |
| 20260509020316 | 39 | 320 | 0.0 | 0.0 | 0.00 | 0.04 | 0.04 | 82 | 1012.4 |
| 20260509015815 | 38 | 320 | 0.0 | 0.0 | 0.00 | 0.04 | 0.04 | 82 | 1012.3 |
| 20260509015313 | 38 | 320 | 0.0 | 0.0 | 0.00 | 0.04 | 0.04 | 81 | 1012.3 |
| 20260509014832 | 38 | 320 | 0.0 | 0.0 | 0.00 | 0.04 | 0.04 | 81 | 1012.2 |
| 20260509014352 | 39 | 320 | 0.0 | 0.0 | 0.00 | 0.04 | 0.04 | 81 | 1012.1 |
| 20260509013829 | 39 | 320 | 0.0 | 0.0 | 0.00 | 0.04 | 0.04 | 81 | 1012.1 |
| 20260509013328 | 39 | 320 | 0.0 | 0.0 | 0.00 | 0.04 | 0.04 | 80 | 1011.9 |
| 20260509012848 | 39 | 310 | 0.0 | 0.0 | 0.00 | 0.04 | 0.04 | 79 | 1011.9 |
| 20260509012326 | 39 | 310 | 0.0 | 0.0 | 0.00 | 0.04 | 0.04 | 79 | 1011.8 |
| 20260509011826 | 40 | 310 | 0.0 | 0.0 | 0.00 | 0.04 | 0.04 | 79 | 1011.8 |
| 20260509011325 | 40 | 310 | 0.0 | 0.0 | 0.00 | 0.04 | 0.04 | 78 | 1011.7 |
| 20260509010822 | 40 | 310 | 0.0 | 0.0 | 0.00 | 0.04 | 0.04 | 77 | 1011.7 |
| 20260509010319 | 41 | 310 | 0.0 | 0.0 | 0.00 | 0.04 | 0.04 | 77 | 1011.6 |
| 20260509005837 | 41 | 310 | 0.0 | 0.0 | 0.00 | 0.04 | 0.04 | 76 | 1011.6 |
| 20260509005335 | 41 | 310 | 0.0 | 0.0 | 0.00 | 0.04 | 0.04 | 74 | 1011.5 |
| 20260509004854 | 42 | 310 | 0.0 | 0.0 | 0.00 | 0.04 | 0.04 | 73 | 1011.4 |
| 20260509004331 | 42 | 310 | 0.0 | 0.0 | 0.00 | 0.04 | 0.04 | 73 | 1011.3 |
| 20260509003831 | 42 | 310 | 0.0 | 0.0 | 0.00 | 0.04 | 0.04 | 74 | 1011.2 |
| 20260509003332 | 42 | 310 | 0.0 | 0.0 | 0.00 | 0.04 | 0.04 | 73 | 1011.2 |
| 20260509002829 | 43 | 310 | 0.0 | 0.0 | 0.00 | 0.04 | 0.04 | 71 | 1011.1 |
| 20260509002328 | 43 | 310 | 0.0 | 0.0 | 0.00 | 0.04 | 0.04 | 69 | 1011.0 |
| 20260509001828 | 44 | 310 | 0.0 | 0.0 | 0.00 | 0.04 | 0.04 | 68 | 1011.0 |
| 20260509001327 | 45 | 310 | 0.0 | 0.0 | 0.00 | 0.04 | 0.04 | 66 | 1010.9 |
| 20260509000847 | 45 | 310 | 0.0 | 0.0 | 0.00 | 0.04 | 0.04 | 64 | 1010.8 |
| 20260509000326 | 46 | 310 | 0.0 | 0.0 | 0.00 | 0.04 | 0.04 | 62 | 1010.8 |
| 20260508235822 | 47 | 310 | 0.0 | 0.0 | 0.00 | 0.04 | 0.04 | 60 | 1010.7 |
| 20260508235321 | 48 | 310 | 0.0 | 0.0 | 0.00 | 0.04 | 0.04 | 58 | 1010.7 |
| 20260508234820 | 49 | 310 | 0.0 | 0.0 | 0.00 | 0.04 | 0.04 | 56 | 1010.7 |